This is the latest recevied weather packets stored in our database for station/object KD8OZS. If no packets are shown the sender has not sent any weather packets the latest 10 day(s).
| Time | Temp. | Humidity | Pressure | Rain* | Wind** | Luminosity | Snow |
|---|---|---|---|---|---|---|---|
| 1777920310 | 21.67° C | 56% | 999.2 hPa | 0 mm | - | 685 W/m² | - |
| 1777920006 | 21.67° C | 57% | 999.3 hPa | 0 mm | - | 693 W/m² | - |
| 1777919703 | 22.22° C | 56% | 999.5 hPa | 0 mm | - | 698 W/m² | - |
| 1777919402 | 22.22° C | 55% | 999.6 hPa | 0 mm | - | 684 W/m² | - |
| 1777919098 | 21.11° C | 57% | 999.5 hPa | 0 mm | - | 659 W/m² | - |
| 1777918795 | 21.11° C | 56% | 999.8 hPa | 0 mm | - | 690 W/m² | - |
| 1777918492 | 21.11° C | 57% | 999.6 hPa | 0 mm | - | 710 W/m² | - |
| 1777918190 | 21.11° C | 56% | 999.6 hPa | 0 mm | - | 721 W/m² | - |
| 1777917889 | 20.56° C | 56% | 999.5 hPa | 0 mm | - | 715 W/m² | - |
| 1777917587 | 20.56° C | 58% | 999.7 hPa | 0 mm | - | 632 W/m² | - |
| 1777917284 | 20.56° C | 56% | 999.7 hPa | 0 mm | - | 660 W/m² | - |
| 1777916982 | 21.11° C | 58% | 999.5 hPa | 0 mm | - | 742 W/m² | - |
| 1777916679 | 20° C | 58% | 999.8 hPa | 0 mm | - | 737 W/m² | - |
| 1777916376 | 20.56° C | 57% | 999.6 hPa | 0 mm | - | 739 W/m² | - |
| 1777916072 | 20° C | 59% | 999.9 hPa | 0 mm | - | 754 W/m² | - |
| 1777915770 | 20.56° C | 58% | 999.8 hPa | 0 mm | - | 757 W/m² | - |
| 1777915466 | 20.56° C | 59% | 1000.1 hPa | 0 mm | - | 767 W/m² | - |
| 1777915162 | 20.56° C | 59% | 999.9 hPa | 0 mm | - | 753 W/m² | - |
| 1777914860 | 20° C | 58% | 999.8 hPa | 0 mm | - | 688 W/m² | - |
| 1777914557 | 20° C | 57% | 1000 hPa | 0 mm | - | 570 W/m² | - |
| 1777914253 | 20.56° C | 56% | 1000.2 hPa | 0 mm | - | 369 W/m² | - |
| 1777913950 | 20° C | 59% | 1000.3 hPa | 0 mm | - | 429 W/m² | - |
| 1777913646 | 19.44° C | 58% | 1000.4 hPa | 0 mm | - | 598 W/m² | - |
| 1777913343 | 19.44° C | 57% | 1000.4 hPa | 0 mm | - | 464 W/m² | - |
| 1777913040 | 20° C | 57% | 1000.3 hPa | 0 mm | - | 382 W/m² | - |
* Rain latest hour (hover to see other rain measurements)
** Current wind speed in m/s (hover to see current wind gust speed)